Tracking 30303 objects as of 20-Apr-2025
HD Live streaming from Space Station
objects crossing your sky now

COSMOS 1275 DEB

Track COSMOS 1275 DEB now!
10-day predictions


NORAD ID: 12692
Int'l Code: 1981-053AL
Perigee: 744.4 km
Apogee: 839.7 km
Inclination: 82.9 °
Period: 100.6 minutes
Semi major axis: 7163 km
RCS: 0.5057 m2 (medium)
Launch date: June 4, 1981
Source: Commonwealth of Independent States (former USSR) (CIS)
Launch site: PLESETSK MISSILE AND SPACE COMPLEX (PKMTR)

Note: This is SATELLITE DEBRIS
Your satellite tracking list
Your tracking list is empty




NASA's NSSDC Master Catalog

Two Line Element Set (TLE):
1 12692U 81053AL  25109.64573602  .00002541  00000-0  91783-3 0  9990
2 12692  82.9002  21.4441 0066528 227.3945 132.1621 14.32036467257363
Source of the keplerian elements: AFSPC